FW2255 Weather Reports


Display with metric or nautical units.
time (UTC)temp
F
wind
direction
speed
MPH
gust
MPH
rain 1hr
in
rain 24hr
in
rain mn
in
humidity
%
barometer
mb
20260507205055 58 182 1.0 4.0 0.00 0.57 0.57 55 1009.6
20260507204554 58 182 1.0 4.0 0.00 0.57 0.57 55 1009.7
20260507204058 58 0 1.0 5.0 0.00 0.57 0.57 51 1009.8
20260507203556 58 0 1.0 5.0 0.00 0.57 0.57 53 1009.8
20260507203055 58 148 1.0 3.0 0.00 0.57 0.57 49 1009.7
20260507202558 58 79 1.0 3.0 0.00 0.57 0.57 50 1009.7
20260507202055 58 78 1.0 4.0 0.00 0.57 0.57 47 1009.7
20260507201559 58 0 0.0 4.0 0.00 0.57 0.57 48 1009.6
20260507201055 57 180 1.0 3.0 0.00 0.57 0.57 51 1009.7
20260507200557 57 181 0.0 3.0 0.00 0.57 0.57 52 1009.9
20260507200103 57 181 1.0 3.0 0.00 0.57 0.57 48 1009.9
20260507195559 57 181 1.0 3.0 0.00 0.57 0.57 50 1009.9
20260507195056 58 181 1.0 3.0 0.00 0.57 0.57 49 1010.0
20260507194601 58 181 0.0 3.0 0.00 0.57 0.57 47 1009.9
20260507194054 58 181 1.0 3.0 0.00 0.57 0.57 48 1010.0
20260507193559 58 186 0.0 3.0 0.00 0.57 0.57 49 1009.9
20260507193055 57 194 1.0 3.0 0.00 0.57 0.57 47 1010.0
20260507192554 57 188 1.0 3.0 0.00 0.57 0.57 50 1010.0
20260507192054 57 188 0.0 2.0 0.00 0.57 0.57 51 1009.9
20260507191558 57 0 0.0 3.0 0.00 0.57 0.57 50 1010.3
20260507191054 57 0 0.0 3.0 0.00 0.57 0.57 49 1010.4
20260507190554 57 188 1.0 3.0 0.00 0.57 0.57 51 1010.3
20260507190110 57 0 1.0 3.0 0.00 0.57 0.57 53 1010.6
20260507185554 57 193 0.0 3.0 0.00 0.57 0.57 53 1010.5
20260507185055 57 193 1.0 3.0 0.00 0.57 0.57 51 1010.5
20260507184554 57 193 1.0 3.0 0.00 0.57 0.57 50 1010.9
20260507184055 57 0 1.0 3.0 0.00 0.57 0.57 52 1011.2
20260507183555 57 193 0.0 3.0 0.00 0.57 0.57 51 1011.2
20260507183114 57 0 2.0 3.0 0.00 0.57 0.57 50 1011.1
20260507182555 56 229 1.0 3.0 0.00 0.57 0.57 51 1010.9
20260507182055 56 229 0.0 2.0 0.00 0.57 0.57 51 1010.8
20260507181559 56 229 0.0 2.0 0.00 0.57 0.57 48 1011.1
20260507181055 56 0 0.0 2.0 0.00 0.57 0.57 48 1011.4
20260507180556 56 229 0.0 3.0 0.00 0.57 0.57 47 1011.4
20260507180055 56 0 0.0 3.0 0.00 0.57 0.57 46 1011.4
20260507175555 57 229 0.0 3.0 0.00 0.57 0.57 44 1011.1
20260507175054 57 0 0.0 2.0 0.00 0.57 0.57 48 1011.3
20260507174602 56 0 0.0 2.0 0.00 0.57 0.57 51 1011.5
20260507174054 56 0 0.0 2.0 0.00 0.57 0.57 45 1011.6
20260507173552 56 0 0.0 2.0 0.00 0.57 0.57 47 1011.5
20260507173103 56 261 0.0 3.0 0.00 0.57 0.57 49 1011.5
20260507172556 56 0 0.0 3.0 0.00 0.57 0.57 48 1011.6
20260507172053 56 144 0.0 1.0 0.00 0.57 0.57 47 1011.5
20260507171557 56 0 0.0 0.0 0.00 0.57 0.57 49 1011.7
20260507171055 56 0 0.0 0.0 0.00 0.57 0.57 51 1012.1
20260507170555 56 0 0.0 2.0 0.00 0.57 0.57 48 1012.1
20260507170057 56 0 0.0 2.0 0.00 0.57 0.57 48 1012.3
20260507165552 56 196 0.0 2.0 0.00 0.57 0.57 43 1012.3
20260507165053 56 292 0.0 2.0 0.00 0.57 0.57 43 1012.3
20260507164629 56 0 0.0 2.0 0.00 0.57 0.57 39 1012.5
20260507164053 56 0 0.0 2.0 0.00 0.57 0.57 39 1012.4
20260507163552 56 0 0.0 2.0 0.00 0.57 0.57 41 1012.4
20260507163056 56 0 0.0 2.0 0.00 0.57 0.57 41 1012.1
20260507162554 56 0 0.0 2.0 0.00 0.57 0.57 46 1012.1
20260507162052 56 0 0.0 1.0 0.00 0.57 0.57 45 1012.3
20260507161604 56 0 0.0 2.0 0.00 0.57 0.57 48 1012.4
20260507161056 56 0 0.0 2.0 0.00 0.57 0.57 48 1012.4
20260507160552 56 195 0.0 2.0 0.00 0.57 0.57 47 1012.4
20260507160058 56 0 0.0 1.0 0.00 0.57 0.57 46 1012.3
20260507155553 56 0 0.0 1.0 0.00 0.58 0.57 48 1012.6
20260507155055 56 0 0.0 1.0 0.00 0.58 0.57 45 1012.7
20260507154558 56 0 0.0 1.0 0.00 0.58 0.57 48 1012.7
20260507154053 56 0 0.0 1.0 0.00 0.58 0.57 46 1012.7
20260507153557 56 0 0.0 1.0 0.00 0.58 0.57 46 1012.7
20260507153058 56 0 0.0 0.0 0.00 0.58 0.57 45 1012.5
20260507152553 56 0 0.0 0.0 0.00 0.58 0.57 48 1012.9
20260507152053 56 0 0.0 0.0 0.00 0.58 0.57 46 1012.7
20260507151556 56 0 0.0 0.0 0.00 0.58 0.57 45 1012.7
20260507151052 56 0 0.0 2.0 0.00 0.58 0.57 44 1012.7
20260507150552 56 0 0.0 2.0 0.00 0.58 0.57 45 1012.8
20260507150057 56 0 1.0 2.0 0.00 0.58 0.57 47 1012.8
20260507145553 56 51 0.0 2.0 0.00 0.64 0.57 46 1013.0
20260507145054 56 0 0.0 2.0 0.00 0.64 0.57 47 1013.2
20260507144600 56 0 0.0 2.0 0.00 0.64 0.57 47 1013.0
20260507144052 56 0 0.0 3.0 0.00 0.64 0.57 47 1013.0
20260507143552 56 0 0.0 3.0 0.00 0.64 0.57 49 1013.1
20260507143114 56 0 0.0 2.0 0.00 0.64 0.57 50 1013.2
20260507142554 56 0 0.0 3.0 0.00 0.64 0.57 50 1013.3
20260507142054 56 0 0.0 3.0 0.00 0.64 0.57 49 1013.5
20260507141556 56 0 0.0 2.0 0.00 0.64 0.57 50 1013.5
20260507141054 56 0 0.0 2.0 0.00 0.64 0.57 50 1013.4
20260507140554 56 0 0.0 3.0 0.00 0.64 0.57 49 1013.4
20260507140055 56 0 1.0 3.0 0.00 0.64 0.57 49 1013.4
20260507135556 56 11 0.0 2.0 0.00 0.71 0.57 50 1013.4
20260507135055 56 11 0.0 4.0 0.00 0.71 0.57 49 1013.4
20260507134556 56 0 1.0 4.0 0.00 0.71 0.57 49 1013.4
20260507134054 56 0 0.0 4.0 0.00 0.71 0.57 48 1013.5
20260507133555 56 360 0.0 4.0 0.00 0.71 0.57 48 1013.5
20260507133058 56 18 0.0 4.0 0.00 0.71 0.57 48 1013.5
20260507132554 56 13 1.0 4.0 0.00 0.71 0.57 48 1013.4
20260507132058 56 0 0.0 3.0 0.00 0.71 0.57 49 1013.6
20260507131602 56 0 0.0 3.0 0.00 0.71 0.57 49 1013.4
20260507131056 56 0 0.0 4.0 0.00 0.71 0.57 47 1013.5
20260507130554 56 304 0.0 4.0 0.00 0.71 0.57 49 1013.4
20260507130056 55 360 1.0 3.0 0.00 0.71 0.57 50 1013.4
20260507125554 55 0 0.0 3.0 0.00 0.72 0.57 50 1013.5
20260507125054 55 355 1.0 3.0 0.00 0.72 0.57 53 1013.2
20260507124604 55 10 0.0 5.0 0.00 0.72 0.57 54 1013.3
20260507124055 55 0 1.0 5.0 0.00 0.72 0.57 55 1013.0
20260507123555 55 47 1.0 5.0 0.00 0.72 0.57 56 1013.1
20260507123052 55 0 1.0 5.0 0.00 0.72 0.57 58 1013.1
20260507122553 55 360 1.0 5.0 0.00 0.72 0.57 59 1013.2
20260507122055 55 346 1.0 3.0 0.00 0.72 0.57 61 1013.0
20260507121553 55 15 0.0 1.0 0.00 0.72 0.57 62 1013.0
20260507121055 55 0 0.0 1.0 0.00 0.72 0.57 65 1012.8
20260507120553 55 0 0.0 2.0 0.00 0.72 0.57 66 1012.7
20260507120055 55 0 0.0 2.0 0.00 0.72 0.57 66 1013.0
20260507115555 55 204 0.0 2.0 0.00 0.72 0.57 67 1013.1
20260507115057 55 0 0.0 2.0 0.00 0.72 0.57 68 1013.1
20260507114609 55 0 0.0 0.0 0.00 0.72 0.57 69 1012.9
20260507114054 55 0 0.0 1.0 0.00 0.72 0.57 69 1013.0
20260507113557 55 0 0.0 1.0 0.00 0.72 0.57 69 1012.7
20260507113128 55 0 0.0 1.0 0.00 0.72 0.57 71 1012.6
20260507112554 55 0 0.0 0.0 0.00 0.72 0.57 72 1012.8
20260507112055 55 0 0.0 0.0 0.00 0.72 0.57 72 1012.7
20260507111558 55 0 0.0 0.0 0.00 0.72 0.57 72 1012.7
20260507111055 55 0 0.0 0.0 0.00 0.72 0.57 72 1012.8
20260507110554 55 0 0.0 0.0 0.00 0.72 0.57 72 1012.7
20260507110056 55 0 0.0 0.0 0.00 0.72 0.57 72 1012.7
20260507105553 55 0 0.0 0.0 0.00 0.72 0.57 72 1012.7
20260507105054 55 0 0.0 0.0 0.00 0.72 0.57 73 1012.7
20260507104556 55 0 0.0 0.0 0.00 0.72 0.57 73 1012.6
20260507104055 54 0 0.0 0.0 0.00 0.72 0.57 72 1012.6
20260507103556 54 0 0.0 1.0 0.00 0.72 0.57 72 1012.5
20260507103059 54 0 0.0 1.0 0.00 0.72 0.57 72 1012.5
20260507102554 54 0 0.0 1.0 0.00 0.72 0.57 72 1012.3
20260507102055 54 0 0.0 0.0 0.00 0.72 0.57 72 1012.3
20260507101559 54 0 0.0 0.0 0.00 0.72 0.57 73 1012.2
20260507101055 54 0 0.0 0.0 0.00 0.72 0.57 73 1012.2
20260507100556 54 0 0.0 0.0 0.00 0.72 0.57 73 1012.3
20260507100121 54 0 0.0 0.0 0.00 0.72 0.57 73 1012.2
20260507095554 54 0 0.0 1.0 0.00 0.72 0.57 73 1012.2
20260507095055 54 0 0.0 1.0 0.00 0.72 0.57 73 1012.2
20260507094602 54 0 0.0 0.0 0.00 0.72 0.57 73 1012.3
20260507094054 54 0 0.0 0.0 0.00 0.72 0.57 73 1012.3
20260507093555 54 0 0.0 0.0 0.00 0.72 0.57 73 1012.2
20260507093055 54 0 0.0 0.0 0.00 0.72 0.57 73 1012.0
20260507092554 54 0 0.0 0.0 0.00 0.72 0.57 73 1012.0
20260507092053 54 0 0.0 1.0 0.00 0.72 0.57 73 1011.9
20260507091632 54 0 0.0 1.0 0.00 0.72 0.57 73 1011.9
20260507091054 54 0 0.0 1.0 0.00 0.72 0.57 73 1011.7
20260507090555 54 0 0.0 0.0 0.00 0.72 0.57 73 1012.1
20260507090058 54 0 0.0 2.0 0.00 0.72 0.57 73 1011.9
20260507085554 54 0 0.0 2.0 0.00 0.72 0.57 73 1011.8
20260507085055 55 0 0.0 2.0 0.00 0.72 0.57 73 1011.8
20260507084604 54 0 0.0 0.0 0.00 0.72 0.57 73 1011.9
20260507084054 54 0 0.0 0.0 0.00 0.72 0.57 72 1011.9
20260507083555 55 0 0.0 0.0 0.00 0.72 0.57 72 1011.8
20260507083056 55 0 0.0 2.0 0.00 0.72 0.57 72 1012.1
20260507082554 55 0 0.0 2.0 0.00 0.72 0.57 72 1011.8
20260507082054 55 0 0.0 1.0 0.00 0.72 0.57 73 1011.7
20260507081600 55 0 0.0 2.0 0.00 0.72 0.57 73 1012.0
20260507081054 55 0 0.0 2.0 0.00 0.72 0.57 73 1011.7
20260507080554 55 0 0.0 2.0 0.00 0.72 0.57 74 1011.4
20260507080056 55 0 0.0 2.0 0.00 0.72 0.57 74 1011.3
20260507075554 55 9 0.0 2.0 0.00 0.72 0.57 74 1011.2
20260507075054 55 0 0.0 2.0 0.00 0.72 0.57 74 1011.2
20260507074559 55 0 0.0 1.0 0.00 0.72 0.57 74 1011.3
20260507074056 55 0 0.0 2.0 0.00 0.72 0.57 74 1011.4
20260507073553 55 0 0.0 2.0 0.00 0.72 0.57 74 1011.3
20260507073057 55 0 0.0 1.0 0.00 0.72 0.57 74 1010.9
20260507072554 55 0 0.0 1.0 0.00 0.72 0.57 74 1010.9
20260507072053 55 0 0.0 1.0 0.00 0.72 0.57 74 1011.1
20260507071556 55 0 0.0 0.0 0.00 0.72 0.57 74 1011.2
20260507071055 56 0 0.0 1.0 0.00 0.72 0.57 74 1011.1
20260507070554 56 0 0.0 2.0 0.00 0.72 0.57 74 1011.0
20260507070057 56 0 0.0 4.0 0.00 0.72 0.57 74 1011.0
20260507065556 56 10 0.0 4.0 0.00 0.72 0.57 74 1011.0
20260507065054 56 0 0.0 3.0 0.00 0.72 0.57 74 1010.9
20260507064554 56 0 0.0 3.0 0.01 0.72 0.57 75 1010.9
20260507064054 56 0 0.0 3.0 0.01 0.72 0.57 75 1011.1
20260507063553 56 352 1.0 7.0 0.01 0.72 0.57 76 1010.7
20260507063055 56 317 1.0 7.0 0.02 0.72 0.57 77 1010.8
20260507062554 57 305 1.0 7.0 0.02 0.72 0.57 78 1011.0
20260507062054 57 0 1.0 6.0 0.03 0.72 0.57 79 1010.9
20260507061553 57 296 2.0 6.0 0.03 0.72 0.57 79 1010.7
20260507061056 57 333 0.0 3.0 0.03 0.72 0.57 80 1010.9
20260507060557 57 0 0.0 3.0 0.03 0.72 0.57 79 1010.9
20260507060059 57 320 0.0 2.0 0.04 0.72 0.57 80 1010.6
20260507055554 58 0 0.0 2.0 0.04 0.72 0.57 80 1010.2
20260507055054 58 0 0.0 2.0 0.05 0.72 0.57 79 1009.8
20260507054554 58 320 0.0 2.0 0.04 0.71 0.56 79 1010.3
20260507054056 58 0 0.0 1.0 0.07 0.71 0.56 79 1010.7
20260507053637 58 0 0.0 0.0 0.24 0.71 0.56 79 1010.5
20260507053055 58 0 0.0 0.0 0.32 0.70 0.55 78 1010.9
20260507052559 58 0 0.0 0.0 0.48 0.70 0.55 77 1010.7
20260507052056 58 0 0.0 0.0 0.52 0.69 0.54 75 1010.8
20260507051558 58 0 0.0 1.0 0.52 0.69 0.54 73 1011.0
20260507051057 58 0 0.0 1.0 0.54 0.69 0.54 72 1011.3
20260507050553 58 0 0.0 1.0 0.54 0.69 0.54 71 1011.3
20260507050057 58 0 0.0 1.0 0.52 0.68 0.52 69 1010.8
20260507045556 58 0 0.0 2.0 0.52 0.68 0.52 69 1010.5
20260507045056 58 0 0.0 6.0 0.52 0.67 0.52 68 1010.8
20260507044616 59 0 0.0 6.0 0.52 0.67 0.52 67 1011.1
20260507044055 59 320 1.0 6.0 0.49 0.64 0.49 66 1011.2
20260507043555 60 326 0.0 4.0 0.32 0.47 0.32 65 1011.7
20260507043109 61 17 2.0 4.0 0.23 0.38 0.23 63 1011.0
20260507042556 62 316 0.0 5.0 0.07 0.22 0.07 61 1011.1
20260507042055 63 330 1.0 5.0 0.02 0.17 0.02 59 1010.7
20260507041558 63 0 1.0 7.0 0.01 0.16 0.01 58 1010.6
20260507041055 64 311 1.0 9.0 0.00 0.15 0.00 55 1010.6
20260507040556 64 5 3.0 9.0 0.00 0.15 0.00 54 1010.7
20260507040059 65 333 1.0 7.0 0.00 0.15 0.00 54 1010.7
20260507035555 65 15 1.0 8.0 0.00 0.15 0.15 55 1010.5
20260507035055 65 311 1.0 8.0 0.00 0.15 0.15 56 1010.3
20260507034557 66 19 2.0 8.0 0.00 0.15 0.15 56 1010.2
20260507034055 66 346 3.0 8.0 0.00 0.15 0.15 57 1010.3
20260507033555 67 290 1.0 5.0 0.00 0.15 0.15 58 1010.4
20260507033102 67 315 1.0 5.0 0.00 0.15 0.15 59 1010.3
20260507032559 67 11 1.0 4.0 0.00 0.15 0.15 59 1010.1
20260507032055 67 40 0.0 3.0 0.00 0.15 0.15 59 1010.2
20260507031556 67 0 0.0 3.0 0.00 0.15 0.15 59 1010.2
20260507031058 67 0 0.0 3.0 0.00 0.15 0.15 59 1009.9
20260507030555 67 0 0.0 3.0 0.00 0.15 0.15 59 1009.6
20260507030059 67 21 0.0 4.0 0.00 0.15 0.15 59 1009.7
20260507025555 67 0 1.0 4.0 0.00 0.15 0.15 60 1009.6
20260507025059 67 21 1.0 4.0 0.00 0.15 0.15 61 1009.8
20260507024558 67 352 1.0 4.0 0.00 0.15 0.15 62 1009.9
20260507024056 67 0 0.0 2.0 0.00 0.15 0.15 64 1009.8
20260507023555 67 0 0.0 2.0 0.00 0.15 0.15 64 1009.7
20260507023108 67 129 0.0 0.0 0.00 0.15 0.15 65 1009.5
20260507022555 67 0 0.0 0.0 0.00 0.15 0.15 66 1009.5
20260507022056 66 0 0.0 0.0 0.00 0.15 0.15 66 1009.5
20260507021555 66 0 0.0 0.0 0.00 0.15 0.15 66 1009.1
20260507021055 66 0 0.0 0.0 0.00 0.15 0.15 66 1009.0
20260507020555 66 0 0.0 0.0 0.00 0.15 0.15 66 1009.1
20260507020105 67 0 0.0 0.0 0.00 0.15 0.15 66 1009.0
20260507015555 67 0 0.0 0.0 0.00 0.15 0.15 65 1009.3
20260507015055 67 0 0.0 0.0 0.00 0.15 0.15 65 1009.5
20260507014557 67 0 0.0 0.0 0.00 0.15 0.15 64 1009.4
20260507014056 67 0 0.0 0.0 0.00 0.15 0.15 64 1009.5
20260507013556 67 0 0.0 0.0 0.00 0.15 0.15 64 1009.5
20260507013058 67 0 0.0 0.0 0.00 0.15 0.15 63 1009.6
20260507012555 67 0 0.0 0.0 0.00 0.15 0.15 63 1009.5
20260507012055 68 0 0.0 0.0 0.00 0.15 0.15 62 1009.7
20260507011558 68 0 0.0 0.0 0.00 0.15 0.15 62 1009.5
20260507011055 68 0 0.0 0.0 0.00 0.15 0.15 62 1009.6
20260507010555 68 0 0.0 0.0 0.00 0.15 0.15 62 1009.7
20260507010057 68 0 0.0 0.0 0.00 0.15 0.15 62 1009.9
20260507005556 68 0 0.0 0.0 0.00 0.15 0.15 62 1009.9
20260507005057 67 0 0.0 0.0 0.00 0.15 0.15 63 1009.7
20260507004556 67 0 0.0 0.0 0.00 0.15 0.15 63 1009.4
20260507004055 67 0 0.0 0.0 0.00 0.15 0.15 63 1009.4
20260507003556 67 0 0.0 0.0 0.00 0.15 0.15 64 1009.2
20260507003114 68 0 0.0 0.0 0.00 0.15 0.15 63 1009.4
20260507002555 68 0 0.0 0.0 0.00 0.15 0.15 63 1009.2
20260507002055 68 0 0.0 0.0 0.00 0.15 0.15 63 1009.1
20260507001616 68 0 0.0 0.0 0.00 0.15 0.15 63 1009.4
20260507001054 68 0 0.0 0.0 0.00 0.15 0.15 62 1009.4
20260507000557 68 0 0.0 0.0 0.00 0.15 0.15 62 1009.2
20260507000057 68 0 0.0 0.0 0.00 0.15 0.15 62 1008.7
20260506235556 68 0 0.0 0.0 0.00 0.15 0.15 62 1008.8
20260506235057 69 0 0.0 0.0 0.00 0.15 0.15 62 1008.9
20260506234557 69 0 0.0 0.0 0.00 0.15 0.15 62 1008.6
20260506234058 69 0 0.0 1.0 0.00 0.15 0.15 62 1008.4
20260506233557 69 0 0.0 1.0 0.00 0.15 0.15 62 1008.2
20260506233055 69 0 0.0 1.0 0.00 0.15 0.15 62 1008.2
20260506232556 69 0 0.0 0.0 0.00 0.15 0.15 62 1008.3
20260506232052 69 0 0.0 0.0 0.00 0.15 0.15 62 1008.3
20260506231604 69 0 0.0 0.0 0.00 0.15 0.15 62 1008.3
20260506231055 69 0 0.0 0.0 0.00 0.15 0.15 62 1008.4
20260506230554 69 0 0.0 0.0 0.00 0.15 0.15 61 1008.4
20260506230109 69 0 0.0 0.0 0.00 0.15 0.15 61 1008.3
20260506225557 69 0 0.0 0.0 0.00 0.15 0.15 61 1008.3
20260506225055 69 0 0.0 0.0 0.00 0.15 0.15 61 1008.3
20260506224556 70 0 0.0 0.0 0.00 0.15 0.15 61 1008.3
20260506224057 69 0 0.0 0.0 0.00 0.15 0.15 61 1008.3
20260506223558 69 0 0.0 0.0 0.00 0.15 0.15 60 1008.3
20260506223103 69 0 0.0 0.0 0.00 0.15 0.15 61 1008.2
20260506222557 69 0 0.0 0.0 0.00 0.15 0.15 60 1008.4
20260506222059 69 0 0.0 0.0 0.00 0.15 0.15 61 1008.2
20260506221607 69 0 0.0 0.0 0.00 0.15 0.15 61 1008.3
20260506221055 69 0 0.0 0.0 0.00 0.15 0.15 61 1008.3
20260506220555 69 0 0.0 0.0 0.00 0.15 0.15 60 1008.3
20260506220056 69 0 0.0 0.0 0.00 0.15 0.15 61 1008.4
20260506215559 69 0 0.0 1.0 0.00 0.15 0.15 61 1008.5
20260506215058 69 0 0.0 4.0 0.00 0.15 0.15 60 1008.4
20260506214556 69 165 0.0 4.0 0.00 0.15 0.15 60 1008.5
20260506214055 68 165 1.0 4.0 0.00 0.15 0.15 60 1008.5
20260506213554 68 165 1.0 4.0 0.00 0.15 0.15 60 1008.5
20260506213102 68 165 1.0 4.0 0.00 0.15 0.15 60 1008.4
20260506212555 68 165 1.0 5.0 0.00 0.15 0.15 60 1008.4
20260506212058 68 165 1.0 5.0 0.00 0.15 0.15 60 1008.3
20260506211556 68 165 2.0 4.0 0.00 0.15 0.15 60 1008.2
20260506211055 68 159 1.0 4.0 0.00 0.15 0.15 61 1008.3
20260506210555 68 159 1.0 4.0 0.00 0.15 0.15 60 1008.2
20260506210059 68 159 1.0 4.0 0.00 0.15 0.15 61 1008.1
20260506205558 68 160 1.0 4.0 0.00 0.15 0.15 60 1008.4